+ View the NASA Portal
+ Center for Near-Earth Object Studies
IMPORTANT:
The SSD Announcement email list is now available. Major changes are coming in the near future, including possible hostname and/or URL changes. To be notified of such changes, subscribe to this email list.
Please visit
this page
for more details.
Don't show this message again
JPL Small-Body Database Browser
Search:
[
help
]
452209 (2015 RZ200)
Classification:
Main-belt Asteroid
SPK-ID:
2452209
[
Ephemeris
|
Orbit Diagram
|
Orbital Elements
|
Mission Design
|
Physical Parameters
|
Discovery Circumstances
|
Close-Approach Data
]
[ show orbit diagram ]
Orbital Elements at Epoch 2458600.5 (2019-Apr-27.0) TDB
Reference:
JPL 6
(heliocentric ecliptic J2000)
Element
Value
Uncertainty (1-sigma)
Units
e
.1407572674902405
1.0596e-07
a
2.841333367251936
8.3964e-08
au
q
2.441395046448709
2.5301e-07
au
i
2.188360652349836
1.1353e-05
deg
node
31.5460846407479
0.00016947
deg
peri
259.6582482553092
0.00019614
deg
M
335.3075598111337
7.3328e-05
deg
t
p
2458720.489494534939
(2019-Aug-24.98949453)
0.00035365
TDB
period
1749.370159537938
4.79
7.7543e-05
2.123e-07
d
yr
n
.2057883507599598
9.1218e-09
deg/d
Q
3.241271688055162
9.5782e-08
au
Orbit Determination Parameters
# obs. used (total)
76
data-arc span
4660 days (12.76 yr)
first obs. used
2003-01-29
last obs. used
2015-11-02
planetary ephem.
DE431
SB-pert. ephem.
SB431-N16
condition code
0
norm. resid. RMS
.58769
source
ORB
producer
Otto Matic
solution date
2017-Apr-09 10:52:11
Additional Information
Earth MOID
= 1.42572 au
Jupiter MOID
= 1.93381 au
T_jup
= 3.293
[ show covariance matrix ]
[
Ephemeris
|
Orbit Diagram
|
Orbital Elements
|
Mission Design
|
Physical Parameters
|
Discovery Circumstances
|
Close-Approach Data
]
Physical Parameter Table
Parameter
Symbol
Value
Units
Sigma
Reference
Notes
absolute magnitude
H
17.3
n/a
MPO361090
452209 (2015 RZ200)
Discovered 2004-Apr-13 by Spacewatch at Kitt Peak
Reference:
Last Updated:
2015-11-30
[ show close-approach data ]
Alternate Designations
2015 RZ200
= 2004 GB63
[
Ephemeris
|
Orbit Diagram
|
Orbital Elements
|
Mission Design
|
Physical Parameters
|
Discovery Circumstances
|
Close-Approach Data
]
2019-Dec-14 11:04 UT
(server date/time)
Site Manager:
Ryan S. Park
Webmaster
:
Alan B. Chamberlin